Weather History for KWWD - December, 2013

Change the Weather History Date:

Monday, December 23, 2013

  Actual Average Record
Temperature  
Mean Temperature 52 °F -  
Max Temperature 62 °F 41 °F 62 °F (2013)
Min Temperature 41 °F 29 °F 15 °F (2000)
Degree Days  
Heating Degree Days 14    
Growing Degree Days 2 (Base 50)    
Moisture  
Dew Point 51 °F    
Average Humidity 86    
Maximum Humidity 94    
Minimum Humidity 76    
Precipitation  
Precipitation 0.26 in - - ()
Sea Level Pressure  
Sea Level Pressure 30.04 in    
Wind  
Wind Speed 7 mph (WSW)    
Max Wind Speed 14 mph    
Max Gust Speed 21 mph    
Visibility 8 miles    
Events      
Averages and records for this station are not official NWS values.
T = Trace of Precipitation, MM = Missing Value Source: NWS Daily Summary

Daily Weather History Graph

Daily Weather History Graph

Search for Another Location

Airport or City:

Trip Planner

Search our weather history database for the weather conditions in past years. The results will help you decide how hot, cold, wet, or windy it might be!

Date:

Astronomy

Dec. 23, 2013 Rise Set
Actual Time 7:16 AM EST 4:41 PM EST
Civil Twilight 6:45 AM EST 5:11 PM EST
Nautical Twilight 6:12 AM EST 5:45 PM EST
Astronomical Twilight 5:39 AM EST 6:17 PM EST
Moon 10:46 PM EST (12/23) 10:42 AM EST (12/23)
Length of Visible Light 10h 25m
Length of Day
9h 25m
Waning Gibbous, 68% of the Moon is Illuminated
Dec 23
Waning Gibbous
Dec 25
Last Quarter
Jan 1
New
Jan 7
First Quarter
Jan 15
Full

Hourly Weather History & Observations

Time (EST) Temp. Windchill Dew Point Humidity Pressure Visibility Wind Dir Wind Speed Gust Speed Precip Events Conditions
12:15 AM 55.4 °F - 51.8 °F 88% 30.00 in 10.0 mi SSE 8.1 mph - N/A   Partly Cloudy
12:35 AM 57.2 °F - 53.6 °F 88% 30.03 in 10.0 mi WSW 3.5 mph - N/A   Scattered Clouds
12:55 AM 57.2 °F - 55.4 °F 94% 30.02 in 10.0 mi South 10.4 mph - N/A   Mostly Cloudy
1:15 AM 60.8 °F - 55.4 °F 82% 30.01 in 10.0 mi South 9.2 mph - N/A   Scattered Clouds
1:35 AM 60.8 °F - 55.4 °F 82% 30.01 in 10.0 mi SSW 5.8 mph - N/A   Clear
1:55 AM 60.8 °F - 55.4 °F 82% 30.01 in 10.0 mi SSW 6.9 mph - N/A   Clear
2:15 AM 60.8 °F - 55.4 °F 82% 30.02 in 10.0 mi SW 6.9 mph - N/A   Clear
2:35 AM 60.8 °F - 55.4 °F 82% 30.02 in 10.0 mi WSW 4.6 mph - N/A   Clear
2:55 AM 60.8 °F - 55.4 °F 82% 30.02 in 10.0 mi WSW 4.6 mph - N/A   Clear
3:15 AM 57.2 °F - 53.6 °F 88% 30.01 in 10.0 mi Calm Calm - N/A   Mostly Cloudy
3:35 AM 57.2 °F - 53.6 °F 88% 30.01 in 10.0 mi Calm Calm - N/A   Overcast
3:55 AM 59.0 °F - 55.4 °F 88% 30.02 in 10.0 mi WSW 4.6 mph - N/A   Overcast
4:15 AM 60.8 °F - 55.4 °F 82% 30.00 in 10.0 mi SSW 3.5 mph - N/A   Overcast
4:35 AM 60.8 °F - 57.2 °F 88% 30.00 in 10.0 mi SSW 4.6 mph - N/A   Overcast
4:55 AM 60.8 °F - 57.2 °F 88% 30.00 in 10.0 mi SW 11.5 mph 17.3 mph N/A   Overcast
5:15 AM 62.6 °F - 59.0 °F 88% 30.00 in 10.0 mi SW 9.2 mph - N/A   Overcast
5:35 AM 62.6 °F - 57.2 °F 82% 30.00 in 10.0 mi SSW 8.1 mph - N/A   Overcast
5:55 AM 59.0 °F - 55.4 °F 88% 30.00 in 10.0 mi SSE 6.9 mph - N/A   Overcast
6:15 AM 57.2 °F - 53.6 °F 88% 30.00 in 10.0 mi SE 4.6 mph - N/A   Overcast
6:35 AM 57.2 °F - 53.6 °F 88% 30.01 in 10.0 mi SE 4.6 mph - N/A   Overcast
6:55 AM 55.4 °F - 51.8 °F 88% 29.99 in 7.0 mi ESE 4.6 mph - N/A   Overcast
7:15 AM 55.4 °F - 51.8 °F 88% 30.00 in 1.5 mi SE 4.6 mph - N/A   Overcast
7:35 AM 55.4 °F - 51.8 °F 88% 29.99 in 2.5 mi SSE 4.6 mph - N/A   Overcast
7:55 AM 55.4 °F - 53.6 °F 94% 30.01 in 1.8 mi WSW 4.6 mph - 0.02 in   Overcast
8:15 AM 57.2 °F - 53.6 °F 88% 30.00 in 3.0 mi South 6.9 mph - 0.02 in   Overcast
8:35 AM 57.2 °F - 55.4 °F 94% 30.01 in 4.0 mi SSW 6.9 mph - 0.02 in   Overcast
8:55 AM 57.2 °F - 55.4 °F 94% 30.01 in 3.0 mi SSW 8.1 mph - 0.03 in   Overcast
9:15 AM 57.2 °F - 55.4 °F 94% 30.02 in 2.0 mi SSW 5.8 mph - N/A   Overcast
9:35 AM 57.2 °F - 55.4 °F 94% 30.03 in 1.0 mi South 5.8 mph - N/A   Overcast
9:55 AM 57.2 °F - 55.4 °F 94% 30.03 in 0.5 mi South 5.8 mph - N/A   Overcast
10:15 AM 59.0 °F - 55.4 °F 88% 30.02 in 3.0 mi South 5.8 mph - N/A   Overcast
10:35 AM 60.8 °F - 57.2 °F 88% 30.01 in 4.0 mi South 5.8 mph - N/A   Mostly Cloudy
10:55 AM 60.8 °F - 57.2 °F 88% 30.01 in 4.0 mi South 9.2 mph - 0.01 in   Overcast
11:15 AM 59.0 °F - 57.2 °F 94% 29.99 in 3.0 mi South 10.4 mph - N/A   Overcast
11:35 AM 60.8 °F - 57.2 °F 88% 29.97 in 8.0 mi South 9.2 mph - 0.01 in   Overcast
11:55 AM 60.8 °F - 57.2 °F 88% 29.97 in 7.0 mi South 12.7 mph - 0.01 in   Overcast
12:15 PM 59.0 °F - 57.2 °F 94% 29.96 in 6.0 mi South 13.8 mph - 0.01 in   Overcast
12:35 PM 60.8 °F - 57.2 °F 88% 29.95 in 10.0 mi SSW 10.4 mph - 0.01 in   Overcast
12:55 PM 60.8 °F - 57.2 °F 88% 29.96 in 10.0 mi South 13.8 mph 20.7 mph 0.02 in   Overcast
1:15 PM 60.8 °F - 57.2 °F 88% 29.96 in 10.0 mi SSW 11.5 mph - N/A   Overcast
1:35 PM 60.8 °F - 57.2 °F 88% 29.96 in 10.0 mi South 10.4 mph - 0.01 in   Overcast
1:55 PM 60.8 °F - 57.2 °F 88% 29.96 in 10.0 mi SSW 10.4 mph - 0.02 in   Overcast
2:15 PM 60.8 °F - 57.2 °F 88% 29.96 in 9.0 mi SSW 9.2 mph - 0.01 in   Overcast
2:35 PM 59.0 °F - 57.2 °F 94% 29.97 in 5.0 mi West 11.5 mph 20.7 mph 0.07 in   Mostly Cloudy
2:55 PM 55.4 °F - 51.8 °F 88% 30.00 in 3.0 mi West 11.5 mph 17.3 mph 0.07 in   Overcast
3:15 PM 53.6 °F - 50.0 °F 88% 30.01 in 3.0 mi NW 11.5 mph 17.3 mph 0.01 in   Overcast
3:35 PM 53.6 °F - 50.0 °F 88% 30.01 in 10.0 mi NNW 9.2 mph - 0.01 in   Overcast
3:55 PM 53.6 °F - 48.2 °F 82% 30.02 in 10.0 mi NNW 9.2 mph 16.1 mph 0.02 in   Overcast
4:15 PM 51.8 °F - 48.2 °F 88% 30.05 in 10.0 mi NW 6.9 mph - N/A   Mostly Cloudy
4:35 PM 51.8 °F - 48.2 °F 88% 30.03 in 10.0 mi NNW 8.1 mph - N/A   Overcast
4:55 PM 51.8 °F - 46.4 °F 82% 30.06 in 10.0 mi NNW 8.1 mph - N/A   Overcast
5:15 PM 51.8 °F - 46.4 °F 82% 30.06 in 10.0 mi NNW 3.5 mph - N/A   Overcast
5:35 PM 51.8 °F - 46.4 °F 82% 30.07 in 10.0 mi NNW 4.6 mph - N/A   Overcast
5:55 PM 51.8 °F - 46.4 °F 82% 30.08 in 10.0 mi NW 4.6 mph - N/A   Overcast
6:15 PM 51.8 °F - 46.4 °F 82% 30.09 in 10.0 mi NW 6.9 mph - 0.01 in   Overcast
6:35 PM 51.8 °F - 46.4 °F 82% 30.10 in 9.0 mi NNW 6.9 mph - 0.02 in   Overcast
6:55 PM 50.0 °F - 46.4 °F 87% 30.10 in 10.0 mi NW 6.9 mph - 0.02 in   Overcast
7:15 PM 50.0 °F - 44.6 °F 82% 30.13 in 10.0 mi WNW 8.1 mph - N/A   Overcast
7:35 PM 48.2 °F - 44.6 °F 87% 30.14 in 9.0 mi NW 9.2 mph - N/A   Overcast
7:55 PM 48.2 °F - 42.8 °F 82% 30.14 in 10.0 mi NW 8.1 mph - N/A   Overcast
8:15 PM 46.4 °F 41.5 °F 41.0 °F 81% 30.11 in 10.0 mi NNW 10.4 mph - N/A   Overcast
8:35 PM 46.4 °F 43.5 °F 41.0 °F 81% 30.12 in 10.0 mi NW 5.8 mph - 0.01 in   Overcast
8:55 PM 46.4 °F 42.4 °F 39.2 °F 76% 30.13 in 10.0 mi NW 8.1 mph - 0.01 in   Overcast
9:15 PM 44.6 °F 40.2 °F 37.4 °F 76% 30.14 in 10.0 mi NW 8.1 mph - N/A   Overcast
9:35 PM 44.6 °F 39.2 °F 37.4 °F 76% 30.12 in 10.0 mi NNW 10.4 mph 17.3 mph N/A   Overcast
9:55 PM 44.6 °F 40.2 °F 37.4 °F 76% 30.12 in 10.0 mi NW 8.1 mph - N/A   Overcast
10:15 PM 42.8 °F 38.0 °F 37.4 °F 81% 30.15 in 10.0 mi NW 8.1 mph - 0.01 in   Overcast
10:35 PM 42.8 °F 36.6 °F 35.6 °F 76% 30.16 in 10.0 mi NW 11.5 mph 16.1 mph 0.01 in   Overcast
10:55 PM 42.8 °F 37.0 °F 35.6 °F 76% 30.16 in 10.0 mi NW 10.4 mph 16.1 mph 0.02 in   Overcast
11:15 PM 42.8 °F 36.2 °F 35.6 °F 76% 30.16 in 10.0 mi NW 12.7 mph 17.3 mph N/A   Overcast
11:35 PM 41.0 °F 35.2 °F 35.6 °F 81% 30.16 in 10.0 mi NW 9.2 mph 17.3 mph 0.01 in   Overcast
11:55 PM 41.0 °F 35.2 °F 35.6 °F 81% 30.17 in 10.0 mi NW 9.2 mph - 0.01 in   Overcast